Location: Miles
(41.4492°N, 81.6087°W)
Time: 21:25:29
(UTC+00:00)

Courier 1B Rocket - Pass Details

Date: 17 September 2024
Orbit: 920 x 1201 km, 28.2° (Epoch: 09 October)

Event Time Altitude Azimuth Distance (km) Brightness Sun altitude
Rises 02:00:33 0° 254° (WSW) 3,906 8.7 -27.1°
Reaches altitude 10° 02:05:29 10° 225° (SW) 3,012 7.7 -27.9°
Maximum altitude 02:08:02 12° 205° (SSW) 2,894 7.4 -28.3°
Enters shadow 02:09:03 12° 197° (SSW) 2,927 7.3 -28.5°
Drops below altitude 10° 02:10:36 10° 185° (S) 3,066 - -28.7°
Sets 02:15:47 0° 156° (SSE) 4,065 - -29.6°
